Lehigh Valley, PA

7:06 PM EST on February 27, 2017 (GMT -0500)
Lehigh Valley International

Weather History for KABE - April, 2014

Change the Weather History Date:

Monday, April 14, 2014

  Actual Average Record
Temperature  
Mean Temperature 69 °F 49 °F  
Max Temperature 76 °F 61 °F 86 °F (1941)
Min Temperature 61 °F 38 °F 23 °F (1950)
Degree Days  
Heating Degree Days 0 16  
Month to date heating degree days 204 251  
Since 1 July heating degree days 5764 5363  
Cooling Degree Days 4 0  
Month to date cooling degree days 7 0  
Year to date cooling degree days 7 0  
Growing Degree Days 18 (Base 50)    
Moisture  
Dew Point 54 °F    
Average Humidity 61    
Maximum Humidity 78    
Minimum Humidity 43    
Precipitation  
Precipitation 0.00 in 0.12 in 1.27 in (1964)
Month to date precipitation 1.00 1.70  
Year to date precipitation 12.43 10.82  
Snow  
Snow 0.00 in 0.10 in T in (1950)
Month to date snowfall 0.0 0.7  
Since 1 July snowfall 67.8 32.6  
Snow Depth 0.00 in    
Sea Level Pressure  
Sea Level Pressure 29.90 in    
Wind  
Wind Speed 14 mph (SSW)    
Max Wind Speed 30 mph    
Max Gust Speed 39 mph    
Visibility 10 miles    
Events      
T = Trace of Precipitation, MM = Missing Value Source: NWS Daily Summary

Daily Weather History Graph

Daily Weather History Graph

Search for Another Location

Airport or City:

Trip Planner

Search our weather history database for the weather conditions in past years. The results will help you decide how hot, cold, wet, or windy it might be!

Date:

Astronomy

Apr. 14, 2014 Rise Set
Actual Time 6:24 AM EDT 7:40 PM EDT
Civil Twilight 5:56 AM EDT 8:08 PM EDT
Nautical Twilight 5:22 AM EDT 8:42 PM EDT
Astronomical Twilight 4:47 AM EDT 9:18 PM EDT
Moon 7:16 PM EDT (4/14) 5:55 AM EDT (4/14)
Length of Visible Light 14h 11m
Length of Day
13h 15m
Full, 100% of the Moon is Illuminated
Apr 14
Full
Apr 15
Full
Apr 22
Last Quarter
Apr 29
New
May 6
First Quarter

Hourly Weather History & Observations

Time (EDT) Temp. Dew Point Humidity Pressure Visibility Wind Dir Wind Speed Gust Speed Precip Events Conditions
12:51 AM 66.0 °F 54.0 °F 65% 29.99 in 10.0 mi SSW 11.5 mph - N/A   Clear
1:51 AM 66.2 °F 53.6 °F 64% 29.98 in 10.0 mi SSW 8.1 mph - N/A   Clear
2:51 AM 64.0 °F 54.0 °F 70% 29.97 in 10.0 mi South 5.8 mph - N/A   Clear
3:51 AM 64.0 °F 55.0 °F 73% 29.96 in 10.0 mi SW 6.9 mph - N/A   Clear
4:51 AM 64.0 °F 55.9 °F 75% 29.95 in 10.0 mi South 8.1 mph - N/A   Clear
5:51 AM 63.0 °F 55.0 °F 75% 29.95 in 10.0 mi SSW 10.4 mph 16.1 mph N/A   Clear
6:51 AM 63.0 °F 55.0 °F 75% 29.95 in 10.0 mi South 11.5 mph - N/A   Clear
7:51 AM 64.0 °F 55.0 °F 73% 29.96 in 10.0 mi South 10.4 mph - N/A   Clear
8:51 AM 66.0 °F 54.0 °F 65% 29.96 in 10.0 mi SSW 9.2 mph - N/A   Clear
9:51 AM 68.0 °F 54.0 °F 61% 29.96 in 10.0 mi SSW 13.8 mph 20.7 mph N/A   Overcast
10:51 AM 71.6 °F 55.4 °F 57% 29.94 in 10.0 mi South 19.6 mph 26.5 mph N/A   Clear
11:51 AM 73.0 °F 55.0 °F 53% 29.94 in 10.0 mi South 19.6 mph 31.1 mph N/A   Mostly Cloudy
12:51 PM 73.9 °F 54.0 °F 50% 29.91 in 10.0 mi SSW 23.0 mph 33.4 mph N/A   Mostly Cloudy
1:51 PM 73.4 °F 53.6 °F 50% 29.89 in 10.0 mi SSW 21.9 mph 31.1 mph N/A   Scattered Clouds
2:51 PM 75.9 °F 54.0 °F 46% 29.87 in 10.0 mi SSW 20.7 mph 31.1 mph N/A   Scattered Clouds
3:51 PM 75.0 °F 53.1 °F 46% 29.85 in 10.0 mi South 20.7 mph 29.9 mph N/A   Partly Cloudy
4:51 PM 75.0 °F 52.0 °F 44% 29.83 in 10.0 mi South 23.0 mph 31.1 mph N/A   Scattered Clouds
5:51 PM 75.0 °F 51.1 °F 43% 29.82 in 10.0 mi SSW 20.7 mph 36.8 mph N/A   Clear
6:51 PM 73.0 °F 51.1 °F 46% 29.82 in 10.0 mi SSW 15.0 mph 23.0 mph N/A   Clear
7:51 PM 72.0 °F 52.0 °F 49% 29.82 in 10.0 mi South 11.5 mph - N/A   Clear
8:51 PM 71.1 °F 52.0 °F 51% 29.83 in 10.0 mi South 12.7 mph - N/A   Clear
9:51 PM 70.0 °F 51.1 °F 51% 29.82 in 10.0 mi South 9.2 mph - N/A   Clear
10:51 PM 66.9 °F 54.0 °F 63% 29.82 in 10.0 mi South 9.2 mph 18.4 mph N/A   Clear
11:51 PM 66.9 °F 55.0 °F 66% 29.80 in 10.0 mi South 10.4 mph - N/A   Clear